QPF
0.01 0.01 0.04 0.06 0.05 0.06 0.06 0.09 0.13 0.17 0.18 0.17 0.13 0.10 0.11 0.12 0.15 0.19 0.22 0.25 0.25 0.23 0.21 0.20 0.19 0.13 0.07 0.04 0.02 0.01 0.00 0.00 0.00 0.00 0.00 0.00 0.00 0.00 0.00 0.00 0.00 0.00 0.00
0.01 0.02 0.05 0.08 0.07 0.07 0.06 0.09 0.13 0.19 0.21 0.17 0.14 0.10 0.10 0.12 0.14 0.18 0.22 0.24 0.27 0.26 0.23 0.21 0.19 0.17 0.11 0.05 0.03 0.01 0.01 0.00 0.00 0.00 0.00 0.00 0.00 0.00 0.00 0.00 0.00 0.00 0.00
0.01 0.04 0.05 0.09 0.08 0.09 0.08 0.10 0.13 0.18 0.23 0.20 0.17 0.13 0.11 0.14 0.17 0.18 0.20 0.24 0.27 0.28 0.25 0.21 0.19 0.18 0.15 0.09 0.04 0.02 0.01 0.00 0.00 0.00 0.00 0.00 0.00 0.00 0.00 0.00 0.00 0.00 0.00
0.01 0.03 0.04 0.07 0.09 0.10 0.11 0.12 0.13 0.15 0.22 0.21 0.19 0.14 0.10 0.12 0.15 0.17 0.20 0.22 0.27 0.32 0.30 0.25 0.22 0.18 0.16 0.11 0.05 0.02 0.01 0.00 0.00 0.00 0.00 0.00 0.00 0.00 0.00 0.00 0.00 0.00 0.00
0.02 0.02 0.04 0.07 0.10 0.12 0.15 0.15 0.16 0.16 0.18 0.20 0.18 0.15 0.10 0.09 0.14 0.19 0.21 0.23 0.26 0.30 0.33 0.29 0.27 0.23 0.18 0.13 0.07 0.02 0.01 0.00 0.00 0.00 0.00 0.00 0.00 0.00 0.00 0.00 0.00 0.00 0.00
0.02 0.02 0.05 0.08 0.10 0.11 0.17 0.18 0.19 0.18 0.17 0.17 0.16 0.14 0.11 0.10 0.13 0.19 0.22 0.24 0.27 0.30 0.31 0.31 0.26 0.24 0.22 0.16 0.09 0.04 0.01 0.00 0.00 0.00 0.00 0.00 0.00 0.00 0.00 0.00 0.00 0.00 0.00
0.02 0.03 0.06 0.10 0.10 0.09 0.15 0.20 0.20 0.18 0.16 0.16 0.15 0.12 0.10 0.10 0.11 0.16 0.20 0.24 0.28 0.30 0.32 0.30 0.27 0.22 0.19 0.16 0.10 0.05 0.02 0.01 0.00 0.00 0.00 0.00 0.00 0.00 0.00 0.00 0.00 0.00 0.00
0.02 0.03 0.05 0.10 0.12 0.10 0.14 0.20 0.21 0.19 0.16 0.16 0.15 0.13 0.10 0.09 0.10 0.13 0.18 0.22 0.27 0.29 0.29 0.30 0.28 0.23 0.18 0.14 0.11 0.06 0.03 0.01 0.01 0.00 0.00 0.00 0.00 0.00 0.00 0.00 0.00 0.00 0.00
0.04 0.05 0.07 0.09 0.10 0.10 0.12 0.17 0.22 0.19 0.16 0.15 0.16 0.14 0.12 0.11 0.11 0.12 0.16 0.19 0.23 0.28 0.30 0.30 0.31 0.26 0.20 0.15 0.11 0.08 0.04 0.02 0.01 0.01 0.00 0.00 0.00 0.00 0.00 0.00 0.00 0.00 0.00
0.05 0.05 0.06 0.09 0.10 0.09 0.11 0.15 0.22 0.23 0.20 0.16 0.16 0.15 0.13 0.12 0.12 0.13 0.14 0.17 0.20 0.25 0.31 0.31 0.29 0.29 0.23 0.18 0.14 0.10 0.06 0.04 0.02 0.01 0.00 0.00 0.00 0.00 0.00 0.00 0.00 0.00 0.00
0.03 0.03 0.05 0.09 0.12 0.10 0.10 0.13 0.18 0.21 0.21 0.17 0.19 0.18 0.14 0.13 0.14 0.13 0.14 0.14 0.17 0.21 0.25 0.27 0.26 0.24 0.23 0.21 0.17 0.12 0.09 0.06 0.03 0.01 0.00 0.00 0.00 0.00 0.00 0.00 0.00 0.00 0.00
0.03 0.03 0.06 0.09 0.12 0.12 0.11 0.12 0.14 0.15 0.15 0.13 0.15 0.16 0.14 0.14 0.16 0.16 0.15 0.14 0.15 0.18 0.21 0.21 0.23 0.20 0.18 0.18 0.17 0.13 0.09 0.07 0.04 0.01 0.00 0.00 0.00 0.00 0.00 0.00 0.00 0.00 0.00
0.04 0.04 0.06 0.08 0.09 0.11 0.12 0.12 0.10 0.10 0.09 0.10 0.12 0.12 0.12 0.12 0.12 0.17 0.19 0.16 0.16 0.17 0.20 0.21 0.20 0.19 0.15 0.14 0.13 0.12 0.09 0.07 0.04 0.02 0.01 0.00 0.00 0.00 0.00 0.01 0.01 0.01 0.00
0.04 0.06 0.05 0.05 0.06 0.08 0.11 0.12 0.11 0.10 0.07 0.08 0.11 0.10 0.10 0.12 0.11 0.14 0.19 0.19 0.17 0.17 0.18 0.18 0.19 0.18 0.13 0.11 0.11 0.10 0.08 0.06 0.05 0.03 0.01 0.00 0.00 0.00 0.00 0.00 0.00 0.00 0.00
0.02 0.06 0.05 0.03 0.04 0.07 0.11 0.12 0.11 0.09 0.07 0.08 0.09 0.09 0.10 0.11 0.11 0.12 0.15 0.18 0.18 0.17 0.18 0.17 0.17 0.16 0.13 0.10 0.10 0.10 0.09 0.06 0.05 0.03 0.02 0.01 0.01 0.00 0.00 0.00 0.00 0.01 0.01
0.02 0.04 0.05 0.03 0.04 0.07 0.11 0.13 0.10 0.09 0.06 0.06 0.06 0.07 0.09 0.11 0.13 0.12 0.13 0.14 0.16 0.17 0.18 0.18 0.16 0.15 0.12 0.11 0.11 0.10 0.08 0.07 0.05 0.03 0.03 0.02 0.01 0.01 0.00 0.00 0.01 0.01 0.01
0.02 0.03 0.05 0.04 0.04 0.07 0.11 0.13 0.08 0.07 0.05 0.05 0.04 0.05 0.07 0.09 0.13 0.14 0.13 0.12 0.13 0.15 0.16 0.16 0.15 0.13 0.11 0.11 0.11 0.11 0.10 0.07 0.05 0.04 0.03 0.02 0.02 0.01 0.01 0.01 0.01 0.02 0.02
0.01 0.02 0.03 0.05 0.05 0.07 0.09 0.11 0.07 0.04 0.04 0.04 0.04 0.05 0.05 0.06 0.11 0.14 0.12 0.10 0.11 0.12 0.14 0.14 0.13 0.12 0.10 0.11 0.11 0.13 0.13 0.11 0.07 0.05 0.04 0.03 0.02 0.01 0.01 0.01 0.02 0.02 0.03
0.02 0.02 0.02 0.03 0.05 0.07 0.07 0.09 0.07 0.03 0.03 0.05 0.05 0.05 0.05 0.05 0.08 0.12 0.14 0.12 0.10 0.10 0.11 0.13 0.14 0.10 0.08 0.09 0.10 0.11 0.12 0.12 0.10 0.07 0.05 0.03 0.03 0.02 0.02 0.02 0.03 0.03 0.04
0.01 0.01 0.02 0.02 0.05 0.07 0.06 0.08 0.07 0.04 0.04 0.05 0.06 0.06 0.05 0.04 0.05 0.08 0.13 0.14 0.12 0.11 0.10 0.11 0.13 0.12 0.08 0.08 0.09 0.10 0.10 0.11 0.10 0.08 0.05 0.04 0.03 0.03 0.03 0.03 0.03 0.03 0.03
0.01 0.01 0.01 0.02 0.05 0.07 0.06 0.06 0.06 0.04 0.03 0.05 0.07 0.04 0.03 0.03 0.03 0.05 0.10 0.13 0.14 0.13 0.10 0.09 0.09 0.11 0.09 0.09 0.10 0.12 0.10 0.08 0.07 0.06 0.05 0.04 0.04 0.04 0.05 0.05 0.04 0.05 0.05
0.00 0.01 0.01 0.02 0.04 0.06 0.06 0.06 0.07 0.05 0.05 0.06 0.06 0.04 0.03 0.02 0.02 0.04 0.08 0.12 0.13 0.12 0.10 0.08 0.07 0.08 0.09 0.08 0.10 0.12 0.11 0.09 0.08 0.06 0.04 0.04 0.05 0.05 0.06 0.07 0.07 0.08 0.07
0.00 0.01 0.01 0.02 0.04 0.05 0.05 0.08 0.09 0.08 0.07 0.05 0.05 0.04 0.02 0.02 0.02 0.03 0.06 0.11 0.12 0.10 0.10 0.09 0.07 0.07 0.07 0.09 0.11 0.12 0.13 0.11 0.09 0.08 0.07 0.06 0.06 0.07 0.08 0.11 0.11 0.10 0.06
0.01 0.01 0.01 0.02 0.04 0.05 0.04 0.07 0.10 0.08 0.06 0.05 0.05 0.04 0.03 0.02 0.02 0.03 0.05 0.08 0.10 0.09 0.08 0.08 0.08 0.07 0.07 0.09 0.10 0.11 0.11 0.12 0.12 0.11 0.10 0.10 0.10 0.10 0.09 0.10 0.10 0.08 0.06
0.01 0.01 0.01 0.02 0.04 0.05 0.06 0.08 0.08 0.07 0.06 0.05 0.05 0.05 0.05 0.05 0.05 0.05 0.05 0.06 0.06 0.07 0.07 0.06 0.07 0.06 0.05 0.07 0.10 0.10 0.09 0.09 0.10 0.11 0.11 0.12 0.12 0.12 0.10 0.09 0.07 0.07 0.07
0.03 0.02 0.02 0.03 0.04 0.06 0.08 0.09 0.07 0.05 0.05 0.05 0.05 0.06 0.06 0.07 0.06 0.04 0.04 0.06 0.07 0.08 0.08 0.06 0.06 0.07 0.07 0.08 0.10 0.10 0.10 0.10 0.13 0.14 0.12 0.11 0.10 0.09 0.08 0.08 0.07 0.07 0.07
MSLP
1010.36 1010.39 1010.39 1010.35 1010.26 1010.12 1009.91 1009.63 1009.28 1008.84 1008.30 1007.64 1006.86 1005.97 1004.99 1003.95 1002.91 1001.94 1001.10 1000.46 1000.07 999.98 1000.21 1000.75 1001.57 1002.61 1003.82 1005.11 1006.41 1007.66 1008.82 1009.84 1010.73 1011.47 1012.10 1012.62 1013.05 1013.41 1013.71 1013.96 1014.16 1014.33 1014.47
1010.25 1010.31 1010.34 1010.31 1010.21 1010.04 1009.82 1009.55 1009.22 1008.82 1008.34 1007.75 1007.03 1006.16 1005.16 1004.08 1002.95 1001.87 1000.92 1000.18 999.72 999.59 999.79 1000.34 1001.16 1002.21 1003.40 1004.65 1005.91 1007.11 1008.22 1009.21 1010.10 1010.88 1011.57 1012.18 1012.71 1013.17 1013.55 1013.86 1014.09 1014.25 1014.37
1010.10 1010.20 1010.26 1010.23 1010.11 1009.92 1009.68 1009.40 1009.10 1008.75 1008.34 1007.83 1007.19 1006.37 1005.40 1004.30 1003.13 1001.98 1000.95 1000.12 999.59 999.39 999.56 1000.08 1000.88 1001.90 1003.05 1004.25 1005.44 1006.57 1007.62 1008.58 1009.45 1010.26 1011.00 1011.69 1012.32 1012.87 1013.33 1013.70 1013.96 1014.14 1014.24
1009.93 1010.06 1010.13 1010.10 1009.96 1009.74 1009.47 1009.19 1008.90 1008.61 1008.27 1007.86 1007.30 1006.58 1005.67 1004.59 1003.42 1002.23 1001.13 1000.24 999.64 999.39 999.50 999.97 1000.73 1001.69 1002.78 1003.92 1005.03 1006.09 1007.07 1007.98 1008.83 1009.65 1010.43 1011.18 1011.87 1012.50 1013.04 1013.46 1013.76 1013.95 1014.06
1009.73 1009.89 1009.97 1009.93 1009.77 1009.51 1009.21 1008.91 1008.63 1008.38 1008.12 1007.80 1007.35 1006.73 1005.91 1004.90 1003.75 1002.56 1001.44 1000.50 999.84 999.52 999.56 999.97 1000.66 1001.57 1002.59 1003.65 1004.69 1005.67 1006.59 1007.44 1008.26 1009.06 1009.85 1010.63 1011.37 1012.06 1012.64 1013.11 1013.46 1013.68 1013.81
1009.51 1009.70 1009.79 1009.74 1009.55 1009.26 1008.92 1008.59 1008.31 1008.09 1007.89 1007.66 1007.33 1006.82 1006.11 1005.18 1004.09 1002.93 1001.80 1000.83 1000.11 999.73 999.70 1000.03 1000.65 1001.48 1002.43 1003.42 1004.39 1005.30 1006.15 1006.96 1007.73 1008.50 1009.28 1010.05 1010.81 1011.52 1012.14 1012.65 1013.04 1013.31 1013.48
1009.30 1009.51 1009.61 1009.55 1009.33 1009.00 1008.61 1008.25 1007.95 1007.75 1007.60 1007.45 1007.22 1006.83 1006.23 1005.40 1004.39 1003.27 1002.15 1001.16 1000.40 999.95 999.84 1000.08 1000.62 1001.37 1002.25 1003.17 1004.08 1004.94 1005.74 1006.49 1007.22 1007.95 1008.69 1009.44 1010.18 1010.90 1011.54 1012.09 1012.52 1012.85 1013.08
1009.08 1009.32 1009.44 1009.38 1009.13 1008.75 1008.32 1007.92 1007.60 1007.40 1007.28 1007.19 1007.05 1006.76 1006.27 1005.54 1004.61 1003.54 1002.45 1001.44 1000.63 1000.12 999.93 1000.08 1000.52 1001.19 1001.99 1002.86 1003.72 1004.54 1005.30 1006.01 1006.70 1007.38 1008.08 1008.79 1009.51 1010.21 1010.86 1011.44 1011.93 1012.32 1012.62
1008.89 1009.16 1009.30 1009.23 1008.96 1008.54 1008.07 1007.62 1007.28 1007.06 1006.96 1006.91 1006.83 1006.63 1006.23 1005.59 1004.74 1003.73 1002.66 1001.64 1000.79 1000.20 999.92 999.97 1000.32 1000.89 1001.63 1002.44 1003.26 1004.05 1004.79 1005.49 1006.15 1006.80 1007.46 1008.14 1008.82 1009.50 1010.15 1010.75 1011.29 1011.75 1012.14
1008.73 1009.03 1009.17 1009.10 1008.81 1008.36 1007.85 1007.37 1006.99 1006.76 1006.66 1006.63 1006.59 1006.44 1006.11 1005.56 1004.77 1003.81 1002.77 1001.74 1000.85 1000.19 999.81 999.76 1000.00 1000.48 1001.14 1001.89 1002.69 1003.47 1004.21 1004.90 1005.56 1006.20 1006.84 1007.49 1008.15 1008.81 1009.46 1010.08 1010.65 1011.18 1011.66
1008.62 1008.94 1009.08 1008.99 1008.68 1008.21 1007.67 1007.16 1006.76 1006.50 1006.39 1006.36 1006.33 1006.22 1005.95 1005.45 1004.72 1003.81 1002.79 1001.76 1000.83 1000.10 999.63 999.46 999.59 999.97 1000.54 1001.24 1002.01 1002.79 1003.55 1004.27 1004.95 1005.61 1006.25 1006.89 1007.54 1008.19 1008.83 1009.46 1010.07 1010.64 1011.19
1008.58 1008.89 1009.02 1008.91 1008.58 1008.09 1007.53 1006.99 1006.57 1006.29 1006.15 1006.10 1006.08 1005.99 1005.74 1005.30 1004.62 1003.76 1002.77 1001.74 1000.78 999.98 999.42 999.14 999.14 999.41 999.89 1000.53 1001.27 1002.05 1002.83 1003.60 1004.33 1005.03 1005.70 1006.36 1007.00 1007.64 1008.28 1008.91 1009.54 1010.15 1010.74
1008.62 1008.90 1008.98 1008.84 1008.48 1007.97 1007.40 1006.85 1006.40 1006.10 1005.93 1005.87 1005.83 1005.74 1005.52 1005.11 1004.49 1003.68 1002.73 1001.72 1000.74 999.89 999.24 998.84 998.72 998.86 999.24 999.81 1000.51 1001.28 1002.10 1002.91 1003.71 1004.47 1005.19 1005.88 1006.55 1007.20 1007.83 1008.46 1009.08 1009.70 1010.31
1008.74 1008.95 1008.97 1008.77 1008.38 1007.86 1007.28 1006.72 1006.26 1005.93 1005.74 1005.64 1005.59 1005.49 1005.29 1004.92 1004.35 1003.60 1002.71 1001.73 1000.76 999.87 999.14 998.64 998.39 998.40 998.66 999.13 999.77 1000.53 1001.37 1002.23 1003.09 1003.92 1004.71 1005.46 1006.16 1006.82 1007.45 1008.07 1008.68 1009.30 1009.91
1008.93 1009.04 1008.97 1008.70 1008.28 1007.73 1007.15 1006.59 1006.12 1005.77 1005.55 1005.42 1005.34 1005.24 1005.05 1004.72 1004.22 1003.55 1002.73 1001.81 1000.86 999.95 999.16 998.56 998.18 998.05 998.18 998.53 999.09 999.82 1000.65 1001.56 1002.48 1003.39 1004.25 1005.06 1005.80 1006.49 1007.13 1007.75 1008.35 1008.95 1009.56
1009.14 1009.12 1008.95 1008.61 1008.14 1007.58 1006.99 1006.43 1005.96 1005.59 1005.34 1005.18 1005.08 1004.97 1004.81 1004.53 1004.11 1003.52 1002.79 1001.95 1001.04 1000.14 999.31 998.61 998.11 997.83 997.81 998.03 998.49 999.15 999.97 1000.89 1001.86 1002.83 1003.77 1004.65 1005.46 1006.19 1006.85 1007.47 1008.07 1008.67 1009.28
1009.33 1009.17 1008.89 1008.48 1007.97 1007.39 1006.81 1006.25 1005.77 1005.39 1005.11 1004.92 1004.80 1004.69 1004.55 1004.33 1004.00 1003.52 1002.89 1002.14 1001.30 1000.41 999.55 998.77 998.15 997.72 997.54 997.62 997.96 998.53 999.31 1000.23 1001.23 1002.27 1003.28 1004.24 1005.12 1005.91 1006.62 1007.27 1007.88 1008.49 1009.11
1009.43 1009.15 1008.76 1008.28 1007.74 1007.16 1006.57 1006.02 1005.53 1005.14 1004.83 1004.62 1004.48 1004.38 1004.27 1004.12 1003.87 1003.51 1003.00 1002.35 1001.58 1000.72 999.84 998.99 998.25 997.69 997.35 997.28 997.48 997.96 998.67 999.58 1000.61 1001.70 1002.79 1003.84 1004.80 1005.67 1006.45 1007.16 1007.82 1008.45 1009.10
1009.43 1009.02 1008.55 1008.03 1007.46 1006.87 1006.29 1005.74 1005.25 1004.84 1004.51 1004.28 1004.12 1004.03 1003.96 1003.87 1003.72 1003.46 1003.07 1002.52 1001.83 1001.01 1000.11 999.20 998.37 997.67 997.19 996.97 997.05 997.43 998.09 998.97 1000.03 1001.17 1002.34 1003.48 1004.55 1005.52 1006.39 1007.18 1007.90 1008.60 1009.29
1009.29 1008.80 1008.27 1007.71 1007.13 1006.55 1005.98 1005.43 1004.93 1004.49 1004.15 1003.89 1003.73 1003.64 1003.61 1003.58 1003.52 1003.36 1003.07 1002.62 1001.99 1001.21 1000.31 999.35 998.43 997.63 997.02 996.69 996.66 996.95 997.56 998.44 999.52 1000.72 1001.98 1003.22 1004.40 1005.49 1006.47 1007.35 1008.17 1008.94 1009.69
1009.05 1008.51 1007.95 1007.38 1006.80 1006.22 1005.64 1005.09 1004.58 1004.12 1003.75 1003.47 1003.30 1003.23 1003.23 1003.26 1003.27 1003.19 1002.99 1002.61 1002.04 1001.29 1000.38 999.39 998.41 997.52 996.83 996.40 996.30 996.54 997.13 998.01 999.13 1000.40 1001.75 1003.10 1004.39 1005.60 1006.70 1007.69 1008.61 1009.46 1010.27
1008.77 1008.20 1007.63 1007.06 1006.49 1005.91 1005.33 1004.76 1004.23 1003.75 1003.35 1003.06 1002.88 1002.82 1002.84 1002.91 1002.98 1002.96 1002.82 1002.49 1001.95 1001.22 1000.31 999.30 998.27 997.34 996.59 996.11 995.98 996.20 996.79 997.71 998.88 1000.23 1001.67 1003.13 1004.54 1005.86 1007.07 1008.17 1009.18 1010.10 1010.98
1008.49 1007.94 1007.38 1006.81 1006.24 1005.65 1005.06 1004.48 1003.92 1003.41 1002.99 1002.68 1002.50 1002.44 1002.48 1002.58 1002.67 1002.69 1002.57 1002.26 1001.74 1001.00 1000.08 999.06 998.01 997.06 996.30 995.82 995.69 995.94 996.57 997.55 998.79 1000.22 1001.75 1003.31 1004.82 1006.24 1007.55 1008.74 1009.82 1010.81 1011.73
1008.28 1007.75 1007.21 1006.65 1006.07 1005.48 1004.87 1004.25 1003.67 1003.14 1002.70 1002.38 1002.19 1002.13 1002.17 1002.27 1002.37 1002.38 1002.26 1001.94 1001.40 1000.65 999.72 998.68 997.64 996.70 995.97 995.53 995.45 995.76 996.46 997.51 998.83 1000.35 1001.96 1003.60 1005.19 1006.69 1008.07 1009.32 1010.45 1011.49 1012.44
1008.16 1007.65 1007.13 1006.58 1006.00 1005.38 1004.75 1004.11 1003.50 1002.95 1002.51 1002.18 1001.98 1001.92 1001.95 1002.03 1002.10 1002.08 1001.91 1001.55 1000.97 1000.19 999.24 998.21 997.18 996.28 995.61 995.24 995.25 995.65 996.44 997.58 998.98 1000.58 1002.26 1003.96 1005.61 1007.15 1008.57 1009.86 1011.02 1012.07 1013.04
1008.10 1007.63 1007.12 1006.57 1005.98 1005.34 1004.69 1004.03 1003.41 1002.86 1002.41 1002.08 1001.88 1001.80 1001.81 1001.85 1001.86 1001.78 1001.54 1001.10 1000.47 999.64 998.67 997.65 996.66 995.83 995.24 994.97 995.09 995.60 996.50 997.73 999.21 1000.87 1002.60 1004.34 1006.01 1007.58 1009.01 1010.30 1011.47 1012.53 1013.50
Thickness
5565 5567 5570 5571 5575 5580 5583 5589 5593 5596 5598 5600 5604 5609 5616 5624 5630 5637 5643 5648 5652 5654 5657 5660 5660 5662 5662 5662 5661 5657 5655 5652 5651 5646 5641 5640 5642 5643 5642 5641 5639 5637 5634
5556 5558 5561 5562 5565 5570 5573 5577 5582 5585 5588 5590 5595 5600 5606 5613 5621 5627 5633 5639 5644 5646 5649 5653 5655 5655 5656 5657 5655 5654 5650 5648 5647 5643 5637 5633 5632 5635 5637 5635 5633 5631 5629
5547 5550 5552 5554 5556 5560 5563 5568 5572 5577 5580 5583 5586 5590 5593 5601 5608 5616 5623 5630 5635 5638 5642 5647 5649 5650 5651 5652 5651 5650 5649 5645 5641 5641 5638 5631 5630 5629 5629 5629 5628 5625 5622
5541 5542 5544 5547 5549 5552 5556 5560 5564 5569 5573 5576 5578 5581 5587 5594 5602 5609 5616 5621 5627 5631 5636 5640 5642 5644 5645 5647 5647 5646 5645 5643 5638 5635 5635 5634 5633 5627 5622 5621 5621 5619 5616
5533 5536 5538 5540 5543 5545 5547 5552 5557 5562 5566 5570 5572 5575 5580 5588 5594 5600 5606 5613 5617 5623 5629 5633 5636 5638 5640 5641 5642 5641 5639 5639 5638 5635 5631 5628 5626 5624 5621 5617 5614 5611 5610
5528 5530 5533 5536 5538 5540 5541 5546 5550 5555 5560 5563 5566 5570 5574 5580 5585 5592 5598 5605 5609 5616 5623 5627 5630 5633 5635 5636 5638 5637 5635 5635 5635 5633 5630 5627 5624 5620 5617 5613 5608 5605 5603
5520 5522 5525 5528 5531 5533 5535 5540 5544 5550 5554 5557 5562 5566 5570 5575 5581 5588 5594 5599 5604 5611 5618 5622 5625 5629 5631 5632 5633 5632 5631 5630 5630 5629 5626 5624 5622 5619 5615 5610 5604 5599 5595
5515 5516 5519 5522 5526 5529 5532 5535 5540 5544 5548 5552 5557 5562 5566 5570 5578 5584 5590 5595 5601 5608 5613 5617 5620 5624 5626 5629 5628 5628 5627 5626 5625 5624 5621 5618 5617 5614 5611 5607 5600 5593 5589
5509 5510 5514 5518 5521 5525 5529 5532 5536 5540 5544 5548 5553 5558 5561 5566 5574 5580 5586 5591 5598 5603 5607 5611 5615 5619 5621 5624 5624 5623 5623 5621 5620 5618 5616 5614 5611 5609 5606 5604 5600 5593 5586
5505 5507 5509 5512 5517 5521 5525 5530 5532 5536 5540 5544 5549 5554 5558 5563 5570 5576 5582 5589 5595 5599 5603 5606 5609 5614 5616 5618 5618 5619 5619 5617 5615 5613 5611 5608 5606 5603 5601 5598 5594 5590 5586
5500 5502 5505 5509 5513 5517 5521 5524 5528 5532 5535 5540 5544 5549 5554 5560 5566 5572 5579 5585 5590 5595 5598 5602 5605 5609 5612 5613 5614 5615 5615 5614 5611 5609 5607 5604 5601 5598 5595 5592 5588 5584 5580
5493 5496 5499 5503 5507 5510 5514 5517 5521 5525 5529 5533 5538 5543 5549 5554 5559 5566 5573 5579 5585 5590 5594 5598 5601 5604 5608 5610 5612 5612 5611 5609 5607 5605 5603 5601 5597 5593 5590 5587 5582 5578 5575
5489 5490 5493 5496 5499 5502 5507 5511 5515 5519 5523 5527 5532 5537 5542 5548 5553 5560 5566 5572 5579 5585 5590 5593 5597 5601 5604 5607 5608 5608 5608 5606 5604 5602 5600 5598 5593 5589 5586 5582 5578 5574 5569
5482 5483 5485 5489 5492 5496 5500 5504 5509 5514 5518 5521 5525 5531 5537 5542 5548 5554 5559 5566 5573 5579 5585 5589 5594 5598 5601 5603 5604 5604 5603 5601 5599 5598 5596 5594 5591 5587 5582 5577 5573 5568 5562
5476 5478 5479 5481 5485 5490 5495 5498 5502 5508 5512 5515 5519 5524 5529 5535 5541 5547 5553 5559 5566 5573 5578 5582 5588 5593 5596 5599 5600 5599 5598 5597 5594 5592 5591 5589 5587 5584 5579 5575 5569 5564 5558
5469 5472 5473 5475 5479 5484 5488 5491 5495 5501 5505 5509 5513 5517 5522 5528 5533 5539 5546 5551 5558 5564 5569 5575 5582 5587 5590 5593 5594 5593 5593 5591 5589 5588 5585 5583 5580 5578 5575 5572 5567 5562 5556
5462 5464 5466 5468 5471 5476 5480 5484 5488 5492 5497 5502 5507 5511 5515 5520 5526 5532 5538 5544 5550 5556 5562 5567 5574 5580 5583 5585 5587 5588 5587 5586 5585 5583 5579 5576 5575 5572 5569 5565 5561 5557 5554
5455 5456 5458 5461 5464 5468 5473 5478 5481 5485 5489 5494 5499 5503 5508 5512 5518 5524 5530 5535 5541 5547 5553 5560 5566 5571 5576 5579 5581 5580 5580 5579 5578 5576 5574 5572 5570 5566 5563 5558 5552 5549 5546
5447 5448 5450 5453 5457 5461 5466 5469 5473 5477 5481 5485 5490 5495 5500 5505 5510 5515 5520 5526 5533 5539 5546 5552 5557 5562 5568 5571 5573 5572 5571 5571 5571 5570 5569 5567 5565 5562 5557 5552 5546 5541 5536
5441 5441 5443 5446 5449 5454 5457 5460 5464 5469 5473 5478 5483 5487 5492 5497 5502 5508 5513 5518 5525 5531 5538 5543 5549 5555 5560 5563 5565 5565 5565 5565 5564 5563 5562 5561 5559 5556 5552 5548 5542 5536 5530
5434 5435 5437 5439 5442 5445 5448 5452 5457 5461 5466 5472 5476 5480 5485 5489 5495 5500 5505 5510 5517 5523 5529 5534 5540 5545 5551 5554 5556 5558 5558 5559 5558 5556 5555 5554 5552 5550 5547 5543 5539 5534 5526
5427 5428 5429 5432 5435 5438 5440 5444 5449 5454 5459 5463 5468 5473 5477 5482 5488 5493 5497 5502 5509 5514 5519 5524 5530 5535 5540 5544 5547 5549 5550 5551 5551 5551 5551 5549 5546 5543 5540 5536 5532 5525 5517
5420 5421 5422 5425 5429 5432 5434 5437 5443 5448 5452 5456 5460 5464 5469 5474 5480 5485 5490 5495 5501 5506 5511 5516 5521 5526 5531 5535 5537 5540 5541 5543 5543 5544 5544 5542 5539 5535 5531 5527 5522 5515 5509
5414 5415 5416 5418 5422 5426 5429 5432 5437 5441 5445 5449 5453 5457 5462 5467 5471 5476 5482 5487 5493 5498 5502 5507 5512 5517 5521 5525 5528 5530 5532 5534 5534 5534 5533 5531 5528 5526 5522 5517 5512 5507 5502
5407 5409 5410 5413 5416 5420 5424 5428 5431 5435 5439 5443 5447 5450 5455 5459 5464 5469 5474 5479 5485 5489 5495 5499 5504 5508 5513 5518 5522 5524 5526 5526 5526 5524 5521 5519 5517 5514 5510 5506 5502 5497 5493
5400 5402 5404 5407 5410 5413 5417 5421 5425 5428 5431 5436 5439 5443 5447 5452 5456 5461 5466 5470 5476 5481 5486 5492 5497 5501 5506 5509 5513 5515 5518 5519 5518 5516 5514 5512 5511 5508 5504 5499 5494 5490 5486